• Join FlightAware (Why Join?)
  • Login
  • US Flag 
05:45AM EST


 

Airport Tracker/Info


-or-


 

Live Flight TrackerFlight Track Log ✈ N10948 ✈ 19-Jul-2014 ✈ KMKC - 21D

Flight Track Log - Related Links

Times and Time Zones

All times are in EDT time to prevent confusion due to time zone crossing. See the N10948 flight status page for this flight to view local times or setup timezone preferences in your user account.

Time Position Orientation Groundspeed Altitude Reporting Facility
EDT Latitude Longitude Course Direction KTS MPH feet Rate Location/Type
02:17PM 39.1167 -94.6000 218° Southwest 75 86 1,300  Level Kansas City TRACON
02:17PM 39.1000 -94.6167 218° Southwest 80 92 2,000 1,059 Climbing Kansas City TRACON
02:18PM 39.0833 -94.6333 218° Southwest 82 94 3,100 950 Climbing Kansas City TRACON
02:19PM 39.0667 -94.6333 180° South 86 99 3,900 850 Climbing Kansas City TRACON
02:20PM 39.0333 -94.6167 159° South 93 107 4,800 600 Climbing Kansas City TRACON
02:21PM 39.0333 -94.5667 90° East 130 150 5,100 150 Climbing Kansas City TRACON
02:22PM 39.0667 -94.5500 21° North 141 162 5,100  Level Kansas City TRACON
02:23PM 39.1000 -94.5333 21° North 136 157 5,100  Level Kansas City TRACON
02:24PM 39.1333 -94.5167 21° North 134 154 5,100  Level Kansas City TRACON
02:25PM 39.1583 -94.5169 360° North 133 153 5,100  Level Kansas City Center
02:26PM 39.1947 -94.5028 17° North 134 154 5,100  Level Kansas City Center
02:27PM 39.2317 -94.4881 17° North 135 155 5,100  Level Kansas City Center
02:28PM 39.2692 -94.4767 13° North 136 157 5,100 -48 Level Kansas City Center
02:29PM 39.3058 -94.4622 17° North 136 157 5,000 -49 Descending Kansas City Center
02:30PM 39.3425 -94.4489 16° North 136 157 5,000  Level Kansas City Center
02:31PM 39.3797 -94.4372 14° North 136 157 5,000  Level Kansas City Center
02:32PM 39.4236 -94.4228 14° North 136 157 5,000 47 Level Kansas City Center
02:33PM 39.4600 -94.4092 16° North 137 158 5,100 48 Climbing Kansas City Center
02:34PM 39.4961 -94.3942 18° North 136 157 5,100  Level Kansas City Center
02:35PM 39.5331 -94.3806 16° North 137 158 5,100  Level Kansas City Center
02:36PM 39.5706 -94.3661 17° North 137 158 5,100  Level Kansas City Center
02:37PM 39.6069 -94.3517 17° North 137 158 5,100  Level Kansas City Center
02:38PM 39.6511 -94.3325 18° North 138 159 5,100  Level Kansas City Center
02:39PM 39.6883 -94.3175 17° North 138 159 5,100  Level Kansas City Center
02:40PM 39.7253 -94.3031 17° North 138 159 5,100  Level Kansas City Center
02:41PM 39.7625 -94.2906 14° North 138 159 5,100  Level Kansas City Center
02:42PM 39.7992 -94.2744 19° North 138 159 5,100 -48 Level Kansas City Center
02:43PM 39.8369 -94.2583 18° North 141 162 5,000 -49 Descending Kansas City Center
02:44PM 39.8736 -94.2444 16° North 141 162 5,000  Level Kansas City Center
02:45PM 39.9194 -94.2300 14° North 140 161 5,000  Level Kansas City Center
02:46PM 39.9550 -94.2136 19° North 140 161 5,000 49 Level Kansas City Center
02:48PM 39.9914 -94.2022 13° North 138 159 5,100  Climbing Kansas City Center
02:49PM 40.0283 -94.1878 17° North 138 159 5,000 -48 Descending Kansas City Center
02:50PM 40.0658 -94.1747 15° North 138 159 5,000 48 Level Kansas City Center
02:51PM 40.1022 -94.1614 16° North 138 159 5,100 49 Climbing Kansas City Center
02:52PM 40.1469 -94.1439 17° North 138 159 5,100  Level Kansas City Center
02:53PM 40.1839 -94.1292 17° North 138 159 5,100  Level Kansas City Center
02:54PM 40.2203 -94.1128 19° North 138 159 5,100 -49 Level Kansas City Center
02:55PM 40.2564 -94.0986 17° North 138 159 5,000 -48 Descending Kansas City Center
02:56PM 40.2942 -94.0850 15° North 138 159 5,000 48 Level Kansas City Center
02:57PM 40.3308 -94.0733 14° North 138 159 5,100 49 Climbing Kansas City Center
02:58PM 40.3753 -94.0544 18° North 138 159 5,100  Level Kansas City Center
02:58PM 40.3975 -94.0475 13° North 140 161 5,100  Level Minneapolis Center
03:00PM 40.4367 -94.0336 15° North 140 161 5,100  Level Minneapolis Center
03:01PM 40.4764 -94.0178 17° North 144 166 5,100  Level Minneapolis Center
03:02PM 40.5242 -93.9997 16° North 145 167 5,100  Level Minneapolis Center
03:03PM 40.5636 -93.9858 15° North 145 167 5,100 -49 Level Minneapolis Center
03:04PM 40.6033 -93.9725 14° North 145 167 5,000 -48 Descending Minneapolis Center
03:05PM 40.6433 -93.9592 14° North 146 168 5,000  Level Minneapolis Center
03:06PM 40.6825 -93.9431 17° North 147 169 5,000 48 Level Minneapolis Center
03:07PM 40.7211 -93.9286 16° North 147 169 5,100 48 Climbing Minneapolis Center
03:08PM 40.7681 -93.9114 16° North 147 169 5,100  Level Minneapolis Center
03:09PM 40.8081 -93.8969 15° North 148 170 5,100  Level Minneapolis Center
03:10PM 40.8483 -93.8836 14° North 149 171 5,100 -68 Level Minneapolis Center
03:10PM 40.8761 -93.8686 22° Northeast 148 170 5,000  Descending Minneapolis Center
03:11PM 40.8911 -93.8664 North 149 171 5,100 90 Climbing Minneapolis Center
03:11PM 40.9175 -93.8486 27° Northeast 146 168 5,100 97 Level Minneapolis Center
03:12PM 40.9328 -93.8494 358° North 149 171 5,200  Climbing Minneapolis Center
03:12PM 40.9550 -93.8339 28° Northeast 145 167 5,100  Descending Minneapolis Center
03:13PM 40.9722 -93.8347 358° North 148 170 5,200  Climbing Minneapolis Center
03:13PM 40.9944 -93.8194 27° Northeast 149 171 5,100 -97 Descending Minneapolis Center
03:14PM 41.0122 -93.8189 North 149 171 5,100  Level Minneapolis Center
03:14PM 41.0339 -93.8050 26° Northeast 149 171 5,100  Level Minneapolis Center
03:15PM 41.0539 -93.8014 North 148 170 5,100  Level Minneapolis Center
03:15PM 41.0731 -93.7875 29° Northeast 147 169 5,100  Level Minneapolis Center
03:16PM 41.0947 -93.7889 357° North 148 170 5,100  Level Minneapolis Center
03:16PM 41.1128 -93.7756 29° Northeast 148 170 5,100  Level Minneapolis Center
03:17PM 41.1367 -93.7725 North 148 170 5,100  Level Minneapolis Center
03:17PM 41.1519 -93.7611 29° Northeast 148 170 5,100  Level Minneapolis Center
03:18PM 41.1769 -93.7572 North 148 170 5,100 91 Level Minneapolis Center
03:18PM 41.1978 -93.7436 26° Northeast 149 171 5,200  Climbing Minneapolis Center
03:19PM 41.2194 -93.7417 North 148 170 5,100 -98 Descending Minneapolis Center
03:19PM 41.2392 -93.7289 26° Northeast 148 170 5,100 73 Level Minneapolis Center
03:20PM 41.2786 -93.7142 16° North 149 171 5,200 50 Climbing Minneapolis Center
03:21PM 41.3181 -93.6994 16° North 148 170 5,200  Level Minneapolis Center
03:22PM 41.3422 -93.6953 North 149 171 5,200  Level Minneapolis Center
03:22PM 41.3617 -93.6819 27° Northeast 152 175 5,200 -97 Level Minneapolis Center
03:23PM 41.3825 -93.6786 North 149 171 5,100 -100 Descending Minneapolis Center
03:23PM 41.4011 -93.6644 30° Northeast 151 174 5,100  Level Minneapolis Center
03:24PM 41.4219 -93.6600 North 149 171 5,100  Level Minneapolis Center
03:25PM 41.4403 -93.6467 29° Northeast 152 175 5,100 -78 Level Minneapolis Center
03:26PM 41.4819 -93.6375 North 150 173 5,000  Descending Minneapolis Center
03:26PM 41.5069 -93.6392 357° North 150 173 5,100 200 Climbing Minneapolis Center
03:27PM 41.5236 -93.6283 26° Northeast 147 169 5,200 98 Climbing Minneapolis Center
03:27PM 41.5503 -93.6325 353° North 149 171 5,200  Level Minneapolis Center
03:28PM 41.5653 -93.6217 28° Northeast 147 169 5,200  Level Minneapolis Center
03:28PM 41.5914 -93.6236 357° North 149 171 5,200  Level Minneapolis Center
03:29PM 41.6067 -93.6122 29° Northeast 151 174 5,200  Level Minneapolis Center
03:29PM 41.6361 -93.6153 356° North 150 173 5,200 -100 Level Minneapolis Center
03:30PM 41.6483 -93.6058 30° Northeast 154 177 5,100 -97 Descending Minneapolis Center
03:30PM 41.6786 -93.6094 355° North 150 173 5,100  Level Minneapolis Center
03:31PM 41.7178 -93.5906 20° North 150 173 5,100 49 Level Minneapolis Center
03:32PM 41.7625 -93.5858 North 150 173 5,200  Climbing Minneapolis Center
03:34PM 41.8125 -93.5711 12° North 151 174 5,100  Descending Minneapolis Center
03:35PM 41.8456 -93.5728 358° North 150 173 5,200 51 Climbing Minneapolis Center
03:36PM 41.8914 -93.5661 North 150 173 5,200 -94 Level Minneapolis Center
03:37PM 41.9436 -93.5511 12° North 154 177 5,000  Descending Minneapolis Center
03:38PM 41.9753 -93.5500 North 151 174 5,200 50 Climbing Minneapolis Center
03:39PM 42.0214 -93.5422 North 152 175 5,100  Descending Minneapolis Center
03:40PM 42.0633 -93.5342 North 152 175 5,200  Climbing Minneapolis Center
03:41PM 42.1064 -93.5272 North 153 176 5,100 -48 Descending Minneapolis Center
03:42PM 42.1519 -93.5186 North 154 177 5,100 49 Level Minneapolis Center
03:43PM 42.1931 -93.5122 North 153 176 5,200  Climbing Minneapolis Center
03:44PM 42.2350 -93.5028 North 153 176 5,100 -48 Descending Minneapolis Center
03:45PM 42.2775 -93.4950 North 153 176 5,100 49 Level Minneapolis Center
03:46PM 42.3219 -93.4861 North 153 176 5,200 49 Climbing Minneapolis Center
03:47PM 42.3664 -93.4786 North 153 176 5,200  Level Minneapolis Center
03:48PM 42.4075 -93.4708 North 154 177 5,200 -48 Level Minneapolis Center
03:49PM 42.4494 -93.4631 North 154 177 5,100  Descending Minneapolis Center
03:50PM 42.4911 -93.4547 North 154 177 5,200  Climbing Minneapolis Center
03:51PM 42.5333 -93.4444 10° North 154 177 5,100 -48 Descending Minneapolis Center
03:52PM 42.5847 -93.4372 North 154 177 5,100 -48 Level Minneapolis Center
03:53PM 42.6292 -93.4292 North 154 177 5,000  Descending Minneapolis Center
03:54PM 42.6689 -93.4225 North 154 177 5,100 98 Climbing Minneapolis Center
03:55PM 42.7083 -93.4131 10° North 153 176 5,200 48 Climbing Minneapolis Center
03:56PM 42.7486 -93.4050 North 152 175 5,200  Level Minneapolis Center
03:57PM 42.7972 -93.3956 North 151 174 5,200  Level Minneapolis Center
03:58PM 42.8386 -93.3889 North 151 174 5,200  Level Minneapolis Center
03:59PM 42.8797 -93.3792 10° North 151 174 5,200  Level Minneapolis Center
04:00PM 42.9214 -93.3733 North 151 174 5,200 -48 Level Minneapolis Center
04:01PM 42.9631 -93.3642 North 151 174 5,100  Descending Minneapolis Center
04:02PM 43.0128 -93.3533 North 151 174 5,200  Climbing Minneapolis Center
04:03PM 43.0544 -93.3422 11° North 151 174 5,100 -48 Descending Minneapolis Center
04:04PM 43.0961 -93.3325 10° North 151 174 5,100 -49 Level Minneapolis Center
04:05PM 43.0958 -93.3137 10° North  Level FlightAware Approximate
04:05PM 43.1369 -93.3203 12° North 151 174 5,000  Level Minneapolis Center
04:06PM 43.1789 -93.3131 North 151 174 5,000 48 Level Minneapolis Center
04:07PM 43.2200 -93.3017 11° North 151 174 5,100 97 Climbing Minneapolis Center
04:09PM 43.2683 -93.2911 North 151 174 5,200 49 Climbing Minneapolis Center
04:10PM 43.3092 -93.2811 10° North 151 174 5,200 -49 Level Minneapolis Center
04:11PM 43.3519 -93.2742 North 151 174 5,100 -48 Descending Minneapolis Center
04:12PM 43.3936 -93.2656 North 151 174 5,100  Level Minneapolis Center
04:13PM 43.4350 -93.2539 12° North 151 174 5,100  Level Minneapolis Center
04:14PM 43.4781 -93.2422 11° North 152 175 5,100  Level Minneapolis Center
04:15PM 43.5281 -93.2339 North 153 176 5,100  Level Minneapolis Center
04:16PM 43.5675 -93.2269 North 153 176 5,100  Level Minneapolis Center
04:17PM 43.6092 -93.2131 14° North 152 175 5,100  Level Minneapolis Center
04:18PM 43.6511 -93.2036 North 152 175 5,100  Level Minneapolis Center
04:19PM 43.6928 -93.1947 North 152 175 5,100  Level Minneapolis Center
04:20PM 43.7347 -93.1839 11° North 152 175 5,100  Level Minneapolis Center
04:21PM 43.7850 -93.1728 North 153 176 5,100 48 Level Minneapolis Center
04:22PM 43.8267 -93.1592 13° North 152 175 5,200  Climbing Minneapolis Center
04:23PM 43.8728 -93.1486 North 153 176 5,100 -49 Descending Minneapolis Center
04:24PM 43.9147 -93.1386 10° North 153 176 5,100  Level Minneapolis Center
04:25PM 43.9606 -93.1261 11° North 154 177 5,100  Level Minneapolis Center
04:26PM 44.0025 -93.1161 10° North 154 177 5,100 48 Level Minneapolis Center
04:27PM 44.0489 -93.1069 North 154 177 5,200 48 Climbing Minneapolis Center
04:28PM 44.0908 -93.0953 11° North 155 178 5,200 -48 Level Minneapolis Center
04:29PM 44.1358 -93.0842 10° North 155 178 5,100 -48 Descending Minneapolis Center
04:30PM 44.1783 -93.0750 North 155 178 5,100 48 Level Minneapolis Center
04:31PM 44.2242 -93.0631 11° North 155 178 5,200 48 Climbing Minneapolis Center
04:32PM 44.2667 -93.0531 10° North 156 180 5,200 -146 Level Minneapolis Center
04:33PM 44.3081 -93.0425 10° North 155 178 4,900 -390 Descending Minneapolis Center
04:34PM 44.3536 -93.0297 11° North 155 178 4,400 -387 Descending Minneapolis Center
04:35PM 44.3956 -93.0167 13° North 155 178 4,100 -339 Descending Minneapolis Center
04:36PM 44.4381 -93.0064 10° North 155 178 3,700 -339 Descending Minneapolis Center
04:37PM 44.4808 -92.9967 North 155 178 3,400 -242 Descending Minneapolis Center
04:38PM 44.5236 -92.9833 13° North 156 180 3,200 -145 Descending Minneapolis Center
04:39PM 44.5658 -92.9733 10° North 156 180 3,100 -48 Descending Minneapolis Center
04:40PM 44.6142 -92.9608 10° North 152 175 3,100 48 Level Minneapolis Center
04:42PM 44.6536 -92.9500 11° North 146 168 3,200 48 Climbing Minneapolis Center
04:43PM 44.6950 -92.9375 12° North 150 173 3,200 -48 Level Minneapolis Center
04:44PM 44.7375 -92.9269 10° North 150 173 3,100 -48 Descending Minneapolis Center
04:45PM 44.7772 -92.9142 13° North 150 173 3,100  Level Minneapolis Center
04:46PM 44.8264 -92.9008 11° North 150 173 3,100  Level Minneapolis Center
04:47PM 44.8669 -92.8906 10° North 150 173 3,100 -48 Level Minneapolis Center
04:48PM 44.9072 -92.8806 10° North 150 173 3,000 -242 Descending Minneapolis Center
04:49PM 44.9464 -92.8689 12° North 149 171 2,600 -484 Descending Minneapolis Center
04:50PM 44.9856 -92.8561 13° North 147 169 2,000 -435 Descending Minneapolis Center
04:51PM 45.0128 -92.8328 31° Northeast 113 130 1,700 -387 Descending Minneapolis Center
04:52PM 45.0044 -92.8500 236° Southwest 95 109 1,200 -484 Descending Minneapolis Center